Weather History for Artesia, NM

Change the Weather History Date:

Thursday, February 7, 2013

  Actual Average Record
Temperature  
Mean Temperature 50 °F -  
Max Temperature 62 °F 55 °F 81 °F (1950)
Min Temperature 39 °F 22 °F 2 °F (1982)
Degree Days  
Heating Degree Days 14    
Moisture  
Dew Point 23 °F    
Average Humidity 34    
Maximum Humidity 46    
Minimum Humidity 22    
Precipitation  
Precipitation 0.00 in - - ()
Sea Level Pressure  
Sea Level Pressure 30.09 in    
Wind  
Wind Speed 10 mph (North)    
Max Wind Speed 21 mph    
Max Gust Speed 25 mph    
Visibility 10 miles    
Events      
Averages and records for this station are not official NWS values.
T = Trace of Precipitation, MM = Missing Value Source: NWS Daily Summary

Daily Weather History Graph

Daily Weather History Graph

Search for Another Location

Airport:

Trip Planner

Search our weather history database for the weather conditions in past years. The results will help you decide how hot, cold, wet, or windy it might be!

Date:

Astronomy

Feb. 07, 2013 Rise Set
Actual Time 6:48 AM MST 5:36 PM MST
Civil Twilight 6:22 AM MST 6:01 PM MST
Nautical Twilight 5:53 AM MST 6:31 PM MST
Astronomical Twilight 5:24 AM MST 7:00 PM MST
Moon 4:24 AM MST (2/7) 3:07 PM MST (2/7)
Length of Visible Light 11h 39m
Length of Day
10h 48m
Waning Crescent, 8% of the Moon is Illuminated
Feb 7
Waning Crescent
Feb 10
New
Feb 17
First Quarter
Feb 25
Full
Mar 4
Last Quarter

Hourly Weather History & Observations

Time (MST) Temp. Windchill Dew Point Humidity Pressure Visibility Wind Dir Wind Speed Gust Speed Precip Events Conditions
12:15 AM 53.6 °F - 24.8 °F 33% 29.92 in 10.0 mi West 10.4 mph - N/A   Clear
12:35 AM 48.2 °F - 24.8 °F 40% 29.92 in 10.0 mi WNW 11.5 mph - N/A   Clear
12:55 AM 48.2 °F - 23.0 °F 37% 29.93 in 10.0 mi West 13.8 mph - N/A   Clear
1:15 AM 48.2 °F - 24.8 °F 40% 29.93 in 10.0 mi West 12.7 mph - N/A   Clear
1:35 AM 48.2 °F - 24.8 °F 40% 29.93 in 10.0 mi West 12.7 mph - N/A   Clear
1:55 AM 48.2 °F - 24.8 °F 40% 29.93 in 10.0 mi West 13.8 mph - N/A   Clear
2:15 AM 48.2 °F - 24.8 °F 40% 29.93 in 10.0 mi WNW 12.7 mph - N/A   Clear
2:55 AM 48.2 °F - 26.6 °F 43% 29.94 in 10.0 mi West 16.1 mph - N/A   Clear
3:15 AM 48.2 °F - 26.6 °F 43% 29.95 in 10.0 mi West 13.8 mph - N/A   Clear
3:35 AM 48.2 °F - 26.6 °F 43% 29.95 in 10.0 mi WNW 15.0 mph - N/A   Clear
3:55 AM 46.4 °F 40.1 °F 26.6 °F 46% 29.96 in 10.0 mi WNW 15.0 mph - N/A   Clear
4:15 AM 48.2 °F - 24.8 °F 40% 29.96 in 10.0 mi WNW 12.7 mph - N/A   Clear
4:35 AM 46.4 °F 40.1 °F 24.8 °F 43% 29.97 in 10.0 mi WNW 15.0 mph - N/A   Clear
4:55 AM 46.4 °F 40.1 °F 24.8 °F 43% 29.98 in 10.0 mi WNW 15.0 mph - N/A   Clear
5:15 AM 46.4 °F 39.8 °F 24.8 °F 43% 29.98 in 10.0 mi WNW 16.1 mph - N/A   Clear
5:35 AM 48.2 °F - 24.8 °F 40% 30.01 in 10.0 mi NE 11.5 mph 24.2 mph N/A   Partly Cloudy
5:55 AM 44.6 °F 40.2 °F 24.8 °F 46% 30.02 in 10.0 mi NW 8.1 mph - N/A   Mostly Cloudy
6:15 AM 44.6 °F 40.2 °F 24.8 °F 46% 30.04 in 10.0 mi NNW 8.1 mph - N/A   Mostly Cloudy
6:35 AM 46.4 °F 41.5 °F 24.8 °F 43% 30.05 in 10.0 mi NW 10.4 mph - N/A   Scattered Clouds
6:55 AM 44.6 °F 40.2 °F 24.8 °F 46% 30.06 in 10.0 mi NW 8.1 mph - N/A   Partly Cloudy
7:15 AM 46.4 °F 42.4 °F 24.8 °F 43% 30.07 in 10.0 mi NNW 8.1 mph - N/A   Clear
7:35 AM 48.2 °F - 23.0 °F 37% 30.09 in 10.0 mi North 9.2 mph - N/A   Clear
7:55 AM 48.2 °F - 23.0 °F 37% 30.10 in 10.0 mi North 10.4 mph - N/A   Clear
8:15 AM 48.2 °F - 23.0 °F 37% 30.12 in 10.0 mi North 11.5 mph - N/A   Clear
8:35 AM 50.0 °F - 23.0 °F 35% 30.13 in 10.0 mi NNE 10.4 mph - N/A   Clear
8:55 AM 50.0 °F - 23.0 °F 35% 30.14 in 10.0 mi NNE 15.0 mph 20.7 mph N/A   Clear
9:15 AM 53.6 °F - 23.0 °F 30% 30.14 in 10.0 mi NNE 20.7 mph 25.3 mph N/A   Clear
9:35 AM 53.6 °F - 23.0 °F 30% 30.14 in 10.0 mi NE 18.4 mph - N/A   Clear
9:55 AM 53.6 °F - 23.0 °F 30% 30.15 in 10.0 mi NNE 16.1 mph 25.3 mph N/A   Clear
10:15 AM 53.6 °F - 23.0 °F 30% 30.15 in 10.0 mi NNE 16.1 mph 25.3 mph N/A   Clear
10:35 AM 55.4 °F - 24.8 °F 31% 30.15 in 10.0 mi NNE 17.3 mph 21.9 mph N/A   Clear
10:55 AM 55.4 °F - 24.8 °F 31% 30.15 in 10.0 mi NE 16.1 mph 21.9 mph N/A   Clear
11:15 AM 55.4 °F - 24.8 °F 31% 30.15 in 10.0 mi NE 15.0 mph 21.9 mph N/A   Clear
11:35 AM 57.2 °F - 24.8 °F 29% 30.14 in 10.0 mi NE 15.0 mph 19.6 mph N/A   Clear
11:55 AM 57.2 °F - 24.8 °F 29% 30.14 in 10.0 mi NE 11.5 mph - N/A   Clear
12:15 PM 57.2 °F - 23.0 °F 27% 30.13 in 10.0 mi NE 6.9 mph 18.4 mph N/A   Clear
12:35 PM 59.0 °F - 23.0 °F 25% 30.12 in 10.0 mi NE 12.7 mph 16.1 mph N/A   Clear
12:55 PM 59.0 °F - 23.0 °F 25% 30.11 in 10.0 mi ENE 6.9 mph - N/A   Clear
1:15 PM 59.0 °F - 23.0 °F 25% 30.10 in 10.0 mi East 8.1 mph 16.1 mph N/A   Clear
1:35 PM 59.0 °F - 23.0 °F 25% 30.10 in 10.0 mi NNE 9.2 mph - N/A   Clear
1:55 PM 59.0 °F - 23.0 °F 25% 30.10 in 10.0 mi NE 5.8 mph - N/A   Clear
2:15 PM 59.0 °F - 23.0 °F 25% 30.09 in 10.0 mi WNW 5.8 mph - N/A   Clear
2:35 PM 59.0 °F - 23.0 °F 25% 30.10 in 10.0 mi NNE 4.6 mph - N/A   Clear
2:55 PM 60.8 °F - 23.0 °F 23% 30.09 in 10.0 mi North 4.6 mph - N/A   Clear
3:15 PM 62.6 °F - 23.0 °F 22% 30.09 in 10.0 mi North 8.1 mph - N/A   Clear
3:35 PM 60.8 °F - 23.0 °F 23% 30.09 in 10.0 mi NE 6.9 mph - N/A   Clear
3:55 PM 60.8 °F - 23.0 °F 23% 30.10 in 10.0 mi NE 6.9 mph - N/A   Clear
4:15 PM 60.8 °F - 23.0 °F 23% 30.10 in 10.0 mi Calm Calm - N/A   Clear
4:35 PM 59.0 °F - 23.0 °F 25% 30.11 in 10.0 mi East 3.5 mph - N/A   Clear
4:55 PM 59.0 °F - 23.0 °F 25% 30.11 in 10.0 mi Calm Calm - N/A   Clear
5:15 PM 59.0 °F - 23.0 °F 25% 30.11 in 10.0 mi Calm Calm - N/A   Clear
5:35 PM 59.0 °F - 23.0 °F 25% 30.12 in 10.0 mi Calm Calm - N/A   Clear
5:55 PM 57.2 °F - 23.0 °F 27% 30.12 in 10.0 mi NE 4.6 mph - N/A   Clear
6:15 PM 55.4 °F - 23.0 °F 29% 30.12 in 10.0 mi NNE 3.5 mph - N/A   Clear
6:35 PM 53.6 °F - 23.0 °F 30% 30.13 in 10.0 mi NNE 4.6 mph - N/A   Partly Cloudy
6:55 PM 51.8 °F - 23.0 °F 33% 30.14 in 10.0 mi ENE 6.9 mph - N/A   Partly Cloudy
7:15 PM 50.0 °F - 23.0 °F 35% 30.15 in 10.0 mi ENE 4.6 mph - N/A   Clear
7:35 PM 48.2 °F - 23.0 °F 37% 30.16 in 10.0 mi NNE 8.1 mph - N/A   Clear
7:55 PM 46.4 °F 44.3 °F 23.0 °F 40% 30.17 in 10.0 mi NNE 4.6 mph - N/A   Clear
8:15 PM 48.2 °F - 23.0 °F 37% 30.17 in 10.0 mi NE 5.8 mph - N/A   Clear
8:35 PM 48.2 °F - 21.2 °F 34% 30.18 in 10.0 mi ENE 5.8 mph - N/A   Clear
8:55 PM 46.4 °F 43.5 °F 19.4 °F 34% 30.18 in 10.0 mi ENE 5.8 mph - N/A   Clear
9:15 PM 46.4 °F 44.3 °F 19.4 °F 34% 30.18 in 10.0 mi NE 4.6 mph - N/A   Clear
9:35 PM 44.6 °F 43.1 °F 19.4 °F 37% 30.19 in 10.0 mi ENE 3.5 mph - N/A   Clear
9:55 PM 44.6 °F - 19.4 °F 37% 30.19 in 10.0 mi Calm Calm - N/A   Clear
10:15 PM 44.6 °F - 19.4 °F 37% 30.20 in 10.0 mi Calm Calm - N/A   Clear
10:35 PM 41.0 °F - 17.6 °F 39% 30.20 in 10.0 mi Calm Calm - N/A   Clear
10:55 PM 41.0 °F 37.1 °F 17.6 °F 39% 30.20 in 10.0 mi SSW 5.8 mph - N/A   Clear
11:15 PM 39.2 °F 35.0 °F 17.6 °F 42% 30.20 in 10.0 mi SW 5.8 mph - N/A   Clear
11:35 PM 39.2 °F 35.0 °F 19.4 °F 45% 30.21 in 10.0 mi SSW 5.8 mph - N/A   Clear
11:55 PM 39.2 °F 33.0 °F 19.4 °F 45% 30.21 in 10.0 mi WSW 9.2 mph - N/A   Clear